Flag for Germany Weather past 2 weeks in Güstrow, Mecklenburg-Western Pomerania, Germany

37 °F

Light rain. Low clouds.

Feels Like: 29 °F
Forecast: 42 / 46 °F
Wind: 14 mph from Southwest

Location: Laage

Current Time: Nov 29, 2015 at 4:56:32 AM

Latest Report: Nov 29, 2015 at 4:20 AM

Visibility: N/A

Pressure: 29.56 "Hg

Humidity: 93%

Dew point: 36 °F

Location of GüstrowLocation

Historic Weather in Güstrow — Graph


Güstrow temperature yesterday

Maximum temperature yesterday: 41 °F (at 2:20 PM)
Minimum temperature yesterday: 32 °F (at 4:20 AM)
Average temperature yesterday: 36 °F

Past Weeks' High & Low Weather Summary

High55 °F (Nov 18, 1:20 AM)100% (Nov 15, 10:20 AM)30.15 "Hg (Nov 15, 10:20 AM)
Low30 °F (Nov 22, 8:20 PM)52% (Nov 23, 1:20 PM)29.30 "Hg (Nov 18, 4:20 AM)
Average42 °F90%29.70 "Hg
* Reported Nov 14 3:20 AM — Nov 29 3:20 AM, Güstrow, Weather by CustomWeather, © 2015

Note: Actual official high and low records may vary slightly from our data, if they occured in-between our weather recording intervals... More about our weather records


Güstrow weather history for previous 24 hours

Time TempWeatherWind HumidityBarometerVisibility
3:20 AM
Sun, Nov 29
37 °FRain. Low clouds.16 mph93%29.59 "HgN/A
2:20 AM39 °FPassing clouds.12 mph87%29.62 "HgN/A
1:20 AM39 °FPartly cloudy.12 mph87%29.68 "HgN/A
12:20 AM39 °FLight rain. Passing clouds.13 mph81%29.71 "HgN/A
11:20 PM
Sat, Nov 28
37 °FPartly cloudy.10 mph87%29.74 "HgN/A
10:20 PM37 °FPassing clouds.9 mph93%29.77 "HgN/A
9:20 PM37 °FPassing clouds.9 mph93%29.77 "HgN/A
8:20 PM39 °FPassing clouds.9 mph87%29.77 "HgN/A
7:20 PM39 °FPassing clouds.12 mph87%29.77 "HgN/A
6:20 PM39 °FPassing clouds.10 mph87%29.77 "HgN/A
5:20 PM39 °FPassing clouds.10 mph93%29.74 "HgN/A
4:20 PM41 °FPassing clouds.8 mph93%29.71 "HgN/A
3:20 PM41 °FPartly sunny.13 mph93%29.71 "HgN/A
2:20 PM41 °FBroken clouds.14 mph93%29.68 "HgN/A
1:20 PM39 °FPartly sunny.10 mph93%29.62 "HgN/A
12:20 PM36 °FLight rain. Cloudy.13 mph100%29.59 "Hg4 mi
11:53 AM34 °FLight rain. Mostly cloudy.10 mph100%29.59 "Hg4 mi
11:20 AM34 °FLight snow. Fog.10 mph93%29.59 "Hg1 mi
10:20 AM34 °FSnow. Fog.9 mph93%29.59 "Hg1 mi
10:00 AM34 °FSnow. Fog.10 mph93%29.56 "Hg1 mi
9:47 AM34 °FLight rain. Fog.12 mph93%29.59 "Hg2 mi
9:20 AM32 °FLight rain. Partly sunny.9 mph100%29.59 "Hg4 mi
8:20 AM32 °FLight rain. Partly sunny.10 mph93%29.59 "Hg5 mi
7:20 AM32 °FPartly cloudy.10 mph87%29.59 "HgN/A
6:20 AM32 °FPartly cloudy.10 mph87%29.59 "HgN/A
5:20 AM32 °FPassing clouds.10 mph87%29.62 "HgN/A
4:20 AM32 °FPassing clouds.10 mph87%29.65 "HgN/A
Weather by CustomWeather, © 2015

See weather overviewHow to use our weather pages